DW5338 Weather Reports


Display with metric or nautical units.
time (UTC)temp
F
wind
direction
speed
MPH
gust
MPH
rain 1hr
in
rain 24hr
in
rain mn
in
humidity
%
barometer
mb
20260504204519 56 270 8.0 14.0 0.00 0.00 0.00 30 1012.0
20260504203519 56 270 4.0 12.0 0.00 0.00 0.00 36 1012.1
20260504202519 54 270 7.0 13.0 0.00 0.00 0.00 38 1012.1
20260504201536 53 270 9.0 18.0 0.00 0.00 0.00 42 1012.4
20260504200516 52 248 7.0 12.0 0.00 0.00 0.00 43 1012.2
20260504195516 50 225 9.0 14.0 0.00 0.00 0.00 44 1012.1
20260504194516 49 225 8.0 16.0 0.00 0.00 0.00 46 1012.2
20260504193516 50 225 9.0 17.0 0.00 0.00 0.00 45 1012.6
20260504192516 50 225 9.0 21.0 0.00 0.00 0.00 43 1012.7
20260504191516 51 270 7.0 14.0 0.00 0.00 0.00 38 1012.8
20260504190516 51 270 12.0 22.0 0.00 0.00 0.00 35 1012.7
20260504185536 52 270 14.0 28.0 0.00 0.00 0.00 36 1012.6
20260504184536 53 270 10.0 17.0 0.00 0.00 0.00 36 1012.9
20260504183536 53 270 6.0 12.0 0.00 0.00 0.00 36 1013.0
20260504182516 53 248 5.0 9.0 0.00 0.00 0.00 37 1013.2
20260504181516 53 270 4.0 9.0 0.00 0.00 0.00 37 1013.2
20260504180516 52 293 7.0 13.0 0.00 0.00 0.00 37 1013.1
20260504175516 52 270 7.0 12.0 0.00 0.00 0.00 37 1013.3
20260504174539 52 270 8.0 15.0 0.00 0.00 0.00 38 1013.4
20260504173519 52 225 7.0 16.0 0.00 0.00 0.00 38 1013.6
20260504172539 51 270 7.0 14.0 0.00 0.00 0.00 38 1013.8
20260504171515 51 270 5.0 15.0 0.00 0.00 0.00 40 1013.9
20260504170516 50 270 9.0 18.0 0.00 0.00 0.00 40 1013.8
20260504150515 47 248 13.0 23.0 0.00 0.00 0.00 44 1013.5
20260504140519 47 225 8.0 26.0 0.00 0.00 0.00 41 1014.1
20260504130535 47 225 9.0 15.0 0.00 0.00 0.00 35 1014.3
20260504110515 40 225 4.0 6.0 0.00 0.00 0.00 40 1013.5
20260504100518 38 203 6.0 7.0 0.00 0.00 0.00 50 1013.4
20260504081518 39 225 7.0 11.0 0.00 0.00 0.00 49 1014.3
20260504080519 38 225 7.0 12.0 0.00 0.00 0.00 51 1014.2
20260504050520 43 225 7.0 13.0 0.00 0.00 0.00 47 1015.8
20260504045520 43 225 7.0 12.0 0.00 0.00 0.00 46 1015.8
20260504044516 42 203 5.0 8.0 0.00 0.00 0.00 49 1015.7
20260504043516 43 225 6.0 9.0 0.00 0.00 0.00 48 1016.0
20260504042516 43 225 6.0 9.0 0.00 0.00 0.00 47 1015.8
20260504041520 44 203 5.0 10.0 0.00 0.00 0.00 48 1016.1
20260504040520 45 203 4.0 7.0 0.00 0.00 0.00 45 1016.1
20260504035520 46 203 4.0 6.0 0.00 0.00 0.00 43 1016.0
20260504034517 46 203 2.0 4.0 0.00 0.00 0.00 44 1016.1
20260504033516 46 203 2.0 4.0 0.00 0.00 0.00 43 1016.2
20260504032516 46 0.0 2.0 0.00 0.00 0.00 42 1016.0
20260504031520 46 203 1.0 2.0 0.00 0.00 0.00 42 1015.9
20260504030520 47 203 1.0 3.0 0.00 0.00 0.00 43 1015.9
20260504025520 47 248 2.0 6.0 0.00 0.00 0.00 42 1015.6
20260504024520 48 203 2.0 5.0 0.00 0.00 0.00 40 1015.5
20260504023520 49 203 3.0 7.0 0.00 0.00 0.00 39 1015.8
20260504022537 49 225 4.0 7.0 0.00 0.00 0.00 38 1015.6
20260504021516 50 225 4.0 9.0 0.00 0.00 0.00 37 1015.7
20260504020517 50 203 6.0 11.0 0.00 0.00 0.00 36 1015.6
20260504015516 51 203 5.0 11.0 0.00 0.00 0.00 35 1015.5
20260504014516 51 225 4.0 11.0 0.00 0.00 0.00 34 1015.5
20260504013516 51 225 4.0 9.0 0.00 0.00 0.00 34 1015.4
20260504012536 51 248 3.0 8.0 0.00 0.00 0.00 34 1015.4
20260504011517 52 270 5.0 10.0 0.00 0.00 0.00 34 1015.4
20260504010520 52 248 5.0 9.0 0.00 0.00 0.00 34 1015.5
20260504005519 52 270 7.0 11.0 0.00 0.00 0.00 33 1015.7
20260504004520 52 270 8.0 13.0 0.00 0.00 0.00 33 1015.6
20260504003520 53 270 13.0 24.0 0.00 0.00 0.00 32 1015.9
20260504002539 54 293 10.0 17.0 0.00 0.00 0.00 31 1015.9
20260504001539 54 293 14.0 22.0 0.00 0.00 0.00 31 1015.8
20260504000516 53 270 10.0 15.0 0.00 0.00 0.00 33 1015.6
20260503235516 53 293 12.0 20.0 0.00 0.00 0.00 34 1015.8
20260503234516 52 270 18.0 31.0 0.00 0.00 0.00 36 1016.0
20260503233516 54 270 13.0 29.0 0.00 0.00 0.00 31 1016.4
20260503232516 54 270 7.0 14.0 0.00 0.00 0.00 31 1016.5
20260503231516 53 225 10.0 19.0 0.00 0.00 0.00 31 1016.1
20260503230519 53 248 12.0 24.0 0.00 0.00 0.00 34 1016.2
20260503225536 55 270 11.0 23.0 0.00 0.00 0.00 27 1015.8
20260503224516 56 248 3.0 7.0 0.00 0.00 0.00 28 1015.4
20260503223516 56 225 4.0 8.0 0.00 0.00 0.00 29 1015.6
20260503222516 54 203 9.0 19.0 0.00 0.00 0.00 31 1016.1
20260503221516 55 270 8.0 23.0 0.00 0.00 0.00 29 1015.8
20260503220520 55 270 6.0 11.0 0.00 0.00 0.00 27 1015.8
20260503215520 55 338 1.0 5.0 0.00 0.00 0.00 27 1016.2
20260503214519 55 293 7.0 12.0 0.00 0.00 0.00 28 1016.3
20260503213516 54 315 7.0 16.0 0.00 0.00 0.00 29 1016.4
20260503212516 54 293 14.0 22.0 0.00 0.00 0.00 29 1016.3
20260503211516 55 338 11.0 21.0 0.00 0.00 0.00 28 1016.5
20260503210536 56 293 11.0 21.0 0.00 0.00 0.00 27 1016.7
20260503205516 56 248 2.0 6.0 0.00 0.00 0.00 25 1016.9